sat.trackr.live / text

‹ back to catalog

STARLINK-36201

NORAD 67164 · 2025-303B

PAYLOAD ACTIVE UNKNOWN

§ Identity

Operator
Country
US
Launch date
2025-12-17
Launch site
AFETR
Launch vehicle
Mass (kg)
RCS (m²)

Purposes: comms

External: N2YO · Heavens-Above · Gunter

§ Orbital elements

Epoch: 2026-09-19T18:48:50.002848Z

Period
94.27 min
Inclination
42.9978°
Eccentricity
0.0001556
Mean motion
15.27591556 rev/d
Perigee alt
481.9 km
Apogee alt
484.1 km
Semi-major
6,861.2 km
B*
4.3399e-4
RAAN
294.2040°
Arg perigee
284.4618°
Mean anomaly
75.6061°
Rev number
4,242

§ Raw data

STARLINK-362011 67164U 25303B   26262.78391207  .00011704  00000+0  43399-3 0  99952 67164  42.9978 294.2040 0001556 284.4618  75.6061 15.27591556 42429

JSON: /api/v1/satellites/67164 · /tle

For live sub-satellite position, see the globe view (requires WebGL).

§ Visibility from observer

Set your observer location to see the next 7 days of passes ≥ 10°. The values pass through the URL so the page stays shareable.

No JS? Fill the form by hand. The geolocation button needs JavaScript.